EZY11AW LGKR-LGSK

Flight info

Callsign EZY11AW
Flight time 0h 37m
Altitude 26000
Route PARAX G12 YNN V651 AGH W58 EVIKO
Aircraft B736/M-SDE2E3FGHIRWXY/LB1

Departure

Time 2026-04-21 16:59
Airport Corfu Ioannis Kapodistrias International Airport (LGKR)

Arrival

Time 2026-04-21 17:36
Airport Skiathos Island National Airport (LGSK)
Time Latitude Longitude Altitude Speed Heading
2026-04-21 16:30 39.60591 19.91380 17 ft 0 kts 78°
2026-04-21 16:51 39.60589 19.91366 18 ft 2 kts 79°
2026-04-21 16:51 39.60586 19.91345 18 ft 2 kts 80°
2026-04-21 16:51 39.60583 19.91324 19 ft 2 kts 81°
2026-04-21 16:52 39.60584 19.91303 19 ft 2 kts 118°
2026-04-21 16:52 39.60594 19.91286 18 ft 2 kts 138°
2026-04-21 16:52 39.60607 19.91272 20 ft 2 kts 139°
2026-04-21 16:52 39.60619 19.91258 18 ft 2 kts 139°
2026-04-21 16:53 39.60631 19.91244 19 ft 2 kts 140°
2026-04-21 16:53 39.60645 19.91232 19 ft 2 kts 159°
2026-04-21 16:53 39.60660 19.91226 17 ft 1 kts 171°
2026-04-21 16:53 39.60664 19.91226 17 ft 0 kts 172°
2026-04-21 16:56 39.60660 19.91226 17 ft 3 kts 171°
2026-04-21 16:56 39.60599 19.91218 19 ft 12 kts 212°
2026-04-21 16:56 39.60550 19.91153 17 ft 9 kts 268°
2026-04-21 16:56 39.60625 19.91102 17 ft 20 kts 348°
2026-04-21 16:57 39.60803 19.91056 19 ft 32 kts 348°
2026-04-21 16:57 39.61010 19.91019 18 ft 21 kts 21°
2026-04-21 16:57 39.61072 19.91104 18 ft 0 kts 30°
2026-04-21 16:57 39.61098 19.91109 18 ft 11 kts 356°
2026-04-21 16:58 39.61200 19.91073 18 ft 19 kts 316°
2026-04-21 16:58 39.61209 19.90962 22 ft 10 kts 207°
2026-04-21 16:58 39.61165 19.90966 21 ft 2 kts 169°
2026-04-21 16:58 39.60942 19.91021 18 ft 65 kts 168°
2026-04-21 16:59 39.60309 19.91187 20 ft 117 kts 169°
2026-04-21 16:59 39.59387 19.91435 142 ft 144 kts 167°
2026-04-21 16:59 39.58437 19.91690 688 ft 138 kts 164°
2026-04-21 16:59 39.57698 19.92510 903 ft 151 kts 107°
2026-04-21 17:00 39.57775 19.93878 1466 ft 154 kts 84°
2026-04-21 17:00 39.57455 19.95132 2018 ft 153 kts 143°
2026-04-21 17:00 39.56844 19.95557 2424 ft 150 kts 158°
2026-04-21 17:00 39.55576 19.96465 3184 ft 158 kts 150°
2026-04-21 17:01 39.54595 19.97273 3492 ft 184 kts 148°
2026-04-21 17:01 39.53451 19.98272 3747 ft 210 kts 147°
2026-04-21 17:01 39.52209 19.99412 4089 ft 224 kts 146°
2026-04-21 17:01 39.50935 20.00631 4573 ft 230 kts 145°
2026-04-21 17:02 39.49649 20.01905 5126 ft 233 kts 144°
2026-04-21 17:02 39.48570 20.03545 5368 ft 253 kts 112°
2026-04-21 17:02 39.48445 20.05820 5769 ft 260 kts 77°
2026-04-21 17:02 39.48930 20.08095 6264 ft 264 kts 72°
2026-04-21 17:03 39.49458 20.10373 6779 ft 266 kts 71°
2026-04-21 17:03 39.49988 20.12683 7331 ft 268 kts 71°
2026-04-21 17:03 39.50503 20.14982 7888 ft 270 kts 72°
2026-04-21 17:03 39.51017 20.17326 8457 ft 273 kts 72°
2026-04-21 17:04 39.51534 20.19719 8992 ft 281 kts 71°
2026-04-21 17:04 39.51909 20.22290 9343 ft 302 kts 90°
2026-04-21 17:04 39.51679 20.25028 10150 ft 308 kts 96°
2026-04-21 17:04 39.51353 20.27849 10641 ft 329 kts 97°
2026-04-21 17:05 39.51116 20.29844 10848 ft 345 kts 97°
2026-04-21 17:05 39.50745 20.32964 11512 ft 355 kts 97°
2026-04-21 17:05 39.50375 20.36144 12391 ft 359 kts 97°
2026-04-21 17:05 39.50009 20.39354 13304 ft 363 kts 96°
2026-04-21 17:06 39.49645 20.42619 14128 ft 369 kts 96°
2026-04-21 17:06 39.49280 20.45932 14879 ft 374 kts 96°
2026-04-21 17:06 39.48913 20.49292 15666 ft 379 kts 96°
2026-04-21 17:06 39.48541 20.52704 16468 ft 385 kts 96°
2026-04-21 17:07 39.48165 20.56164 17263 ft 392 kts 96°
2026-04-21 17:07 39.47782 20.59682 18063 ft 397 kts 96°
2026-04-21 17:07 39.47393 20.63243 18802 ft 401 kts 96°
2026-04-21 17:07 39.46999 20.66832 19502 ft 406 kts 96°
2026-04-21 17:08 39.46598 20.70478 20197 ft 411 kts 96°
2026-04-21 17:08 39.46194 20.74153 20906 ft 414 kts 96°
2026-04-21 17:08 39.45789 20.77814 21606 ft 418 kts 96°
2026-04-21 17:08 39.45376 20.81561 22292 ft 423 kts 96°
2026-04-21 17:09 39.44527 20.89181 23656 ft 432 kts 96°
2026-04-21 17:09 39.44094 20.93046 24247 ft 436 kts 95°
2026-04-21 17:09 39.43657 20.96937 24833 ft 439 kts 95°
2026-04-21 17:10 39.43215 21.00860 24948 ft 440 kts 95°
2026-04-21 17:10 39.42770 21.04773 24995 ft 439 kts 95°
2026-04-21 17:10 39.42327 21.08679 24980 ft 439 kts 95°
2026-04-21 17:10 39.41883 21.12586 24990 ft 439 kts 95°
2026-04-21 17:11 39.41436 21.16508 24977 ft 440 kts 95°
2026-04-21 17:11 39.40989 21.20424 24994 ft 440 kts 95°
2026-04-21 17:11 39.40541 21.24336 24982 ft 440 kts 95°
2026-04-21 17:11 39.40091 21.28250 24982 ft 440 kts 96°
2026-04-21 17:12 39.39642 21.32148 24981 ft 440 kts 96°
2026-04-21 17:12 39.39193 21.36026 24963 ft 439 kts 96°
2026-04-21 17:12 39.38741 21.39937 24991 ft 439 kts 96°
2026-04-21 17:12 39.38286 21.43843 24974 ft 440 kts 96°
2026-04-21 17:13 39.37829 21.47759 24972 ft 440 kts 96°
2026-04-21 17:13 39.37368 21.51683 24958 ft 440 kts 96°
2026-04-21 17:13 39.36908 21.55597 24965 ft 440 kts 96°
2026-04-21 17:13 39.36447 21.59513 24954 ft 441 kts 96°
2026-04-21 17:14 39.35984 21.63436 24959 ft 440 kts 96°
2026-04-21 17:14 39.35520 21.67347 24941 ft 441 kts 96°
2026-04-21 17:14 39.35055 21.71260 24938 ft 440 kts 96°
2026-04-21 17:14 39.34590 21.75158 24814 ft 436 kts 96°
2026-04-21 17:15 39.34135 21.78949 24560 ft 430 kts 96°
2026-04-21 17:15 39.33679 21.82740 24322 ft 424 kts 96°
2026-04-21 17:15 39.33227 21.86503 24090 ft 424 kts 96°
2026-04-21 17:15 39.32774 21.90268 23860 ft 424 kts 96°
2026-04-21 17:16 39.32319 21.94041 23626 ft 424 kts 96°
2026-04-21 17:16 39.31863 21.97806 23376 ft 423 kts 96°
2026-04-21 17:16 39.31407 22.01558 23099 ft 422 kts 96°
2026-04-21 17:16 39.30951 22.05301 22829 ft 421 kts 96°
2026-04-21 17:17 39.30496 22.09022 22555 ft 419 kts 96°
2026-04-21 17:17 39.30041 22.12730 22276 ft 417 kts 97°
2026-04-21 17:17 39.29592 22.16377 22023 ft 415 kts 97°
2026-04-21 17:17 39.29140 22.20045 21756 ft 412 kts 97°
2026-04-21 17:18 39.28690 22.23689 21382 ft 410 kts 97°
2026-04-21 17:18 39.28243 22.27296 20939 ft 404 kts 97°
2026-04-21 17:18 39.27800 22.30860 20455 ft 400 kts 97°
2026-04-21 17:18 39.27360 22.34390 19986 ft 397 kts 97°
2026-04-21 17:19 39.26923 22.37896 19515 ft 394 kts 97°
2026-04-21 17:19 39.26488 22.41375 19049 ft 391 kts 97°
2026-04-21 17:19 39.26055 22.44822 18593 ft 388 kts 97°
2026-04-21 17:19 39.25624 22.48253 18119 ft 386 kts 98°
2026-04-21 17:20 39.25196 22.51647 17594 ft 383 kts 98°
2026-04-21 17:20 39.24767 22.55045 17099 ft 380 kts 98°
2026-04-21 17:20 39.24342 22.58402 16629 ft 377 kts 98°
2026-04-21 17:20 39.23919 22.61729 16153 ft 374 kts 98°
2026-04-21 17:21 39.23500 22.65029 15698 ft 370 kts 98°
2026-04-21 17:21 39.23083 22.68295 15244 ft 367 kts 98°
2026-04-21 17:21 39.22669 22.71542 14914 ft 366 kts 98°
2026-04-21 17:21 39.22261 22.74730 14870 ft 362 kts 98°
2026-04-21 17:22 39.21854 22.77887 14847 ft 349 kts 98°
2026-04-21 17:22 39.21543 22.80912 14843 ft 332 kts 93°
2026-04-21 17:22 39.21398 22.83816 14830 ft 317 kts 91°
2026-04-21 17:22 39.21295 22.86621 14673 ft 310 kts 91°
2026-04-21 17:23 39.21201 22.89385 14369 ft 308 kts 91°
2026-04-21 17:23 39.21103 22.92154 13937 ft 311 kts 91°
2026-04-21 17:23 39.20998 22.94978 13265 ft 320 kts 91°
2026-04-21 17:23 39.20884 22.97930 12283 ft 339 kts 92°
2026-04-21 17:24 39.20760 23.01009 11562 ft 347 kts 92°
2026-04-21 17:24 39.20631 23.04116 11020 ft 347 kts 92°
2026-04-21 17:24 39.20500 23.07220 10548 ft 345 kts 92°
2026-04-21 17:24 39.20369 23.10284 10292 ft 336 kts 92°
2026-04-21 17:25 39.20241 23.13244 10136 ft 325 kts 92°
2026-04-21 17:25 39.20117 23.16099 10010 ft 314 kts 92°
2026-04-21 17:25 39.19998 23.18833 9827 ft 299 kts 92°
2026-04-21 17:25 39.19882 23.21484 9490 ft 293 kts 92°
2026-04-21 17:26 39.19768 23.24096 9179 ft 291 kts 92°
2026-04-21 17:26 39.19654 23.26698 8861 ft 290 kts 92°
2026-04-21 17:26 39.19539 23.29294 8553 ft 290 kts 92°
2026-04-21 17:26 39.19425 23.31848 8246 ft 289 kts 92°
2026-04-21 17:27 39.19310 23.34435 7974 ft 289 kts 92°
2026-04-21 17:27 39.19193 23.37069 7644 ft 298 kts 92°
2026-04-21 17:27 39.19073 23.39718 7311 ft 294 kts 92°
2026-04-21 17:27 39.18954 23.42316 6984 ft 287 kts 92°
2026-04-21 17:28 39.18838 23.44862 6672 ft 282 kts 92°
2026-04-21 17:28 39.18723 23.47384 6388 ft 282 kts 92°
2026-04-21 17:28 39.18612 23.49896 6075 ft 279 kts 92°
2026-04-21 17:28 39.18495 23.52396 5778 ft 279 kts 93°
2026-04-21 17:29 39.18283 23.54820 5455 ft 272 kts 107°
2026-04-21 17:29 39.17379 23.56866 5205 ft 258 kts 136°
2026-04-21 17:29 39.15936 23.58111 4928 ft 244 kts 163°
2026-04-21 17:29 39.14331 23.58462 4651 ft 227 kts 184°
2026-04-21 17:30 39.12825 23.58114 4283 ft 217 kts 204°
2026-04-21 17:30 39.11477 23.57320 4013 ft 207 kts 209°
2026-04-21 17:30 39.10254 23.56517 3849 ft 194 kts 210°
2026-04-21 17:30 39.09068 23.55732 3730 ft 193 kts 210°
2026-04-21 17:31 39.07872 23.54944 3614 ft 191 kts 209°
2026-04-21 17:31 39.06706 23.54180 3526 ft 184 kts 209°
2026-04-21 17:31 39.05579 23.53443 3468 ft 186 kts 209°
2026-04-21 17:31 39.04420 23.52685 3383 ft 188 kts 209°
2026-04-21 17:32 39.03636 23.52175 3327 ft 187 kts 209°
2026-04-21 17:32 39.02317 23.50817 3204 ft 184 kts 242°
2026-04-21 17:32 39.02022 23.49245 3073 ft 185 kts 273°
2026-04-21 17:32 39.02453 23.47696 2876 ft 186 kts 306°
2026-04-21 17:33 39.03488 23.46706 2688 ft 190 kts 340°
2026-04-21 17:33 39.04773 23.46627 2486 ft 180 kts
2026-04-21 17:33 39.05931 23.46919 2272 ft 160 kts 10°
2026-04-21 17:33 39.06979 23.47212 2038 ft 149 kts 11°
2026-04-21 17:34 39.07986 23.47480 1860 ft 146 kts 10°
2026-04-21 17:34 39.08963 23.47721 1686 ft 146 kts 10°
2026-04-21 17:34 39.09976 23.47962 1491 ft 149 kts 10°
2026-04-21 17:34 39.11007 23.48206 1315 ft 150 kts 10°
2026-04-21 17:35 39.12033 23.48468 1119 ft 151 kts 11°
2026-04-21 17:35 39.13050 23.48740 900 ft 148 kts 12°
2026-04-21 17:35 39.14046 23.48989 666 ft 141 kts 11°
2026-04-21 17:35 39.14975 23.49222 425 ft 130 kts 12°
2026-04-21 17:36 39.15822 23.49498 340 ft 123 kts 18°
2026-04-21 17:36 39.16667 23.49882 140 ft 135 kts 20°
2026-04-21 17:36 39.17522 23.50277 39 ft 106 kts 18°
2026-04-21 17:36 39.17862 23.50431 37 ft 0 kts 19°
2026-04-21 17:37 39.17926 23.50427 41 ft 12 kts 306°
2026-04-21 17:37 39.17916 23.50353 38 ft 0 kts 250°
2026-04-21 17:37 39.17916 23.50352 40 ft 0 kts 250°
2026-04-21 17:39 39.17925 23.50333 37 ft 1 kts 333°
2026-04-21 17:39 39.17950 23.50351 39 ft 9 kts 29°
2026-04-21 17:39 39.17974 23.50334 38 ft 7 kts 271°
2026-04-21 17:39 39.17990 23.50271 38 ft 0 kts 289°